Regional Weather Roundup
Issued by NWS

Home | Current Version | Previous Version | Graphics & Text | Print | Product List | Glossary On
Versions: 1 2 3 4 5 6 7 8 9 10 11 12 13 14 15 16 17 18 19 20 21 22 23 24 25 26 27 28 29 30 31 32 33 34 35 36 37 38 39 40 41 42 43 44 45 46 47 48 49 50
000
ASUS43 KBIS 221502
RWRND

NORTH DAKOTA REGIONAL WEATHER ROUNDUP
NATIONAL WEATHER SERVICE BISMARCK ND
1000 AM CDT TUE AUG 22 2017

NOTE: "FAIR" INDICATES FEW OR NO CLOUDS BELOW 12,000 FEET WITH NO
SIGNIFICANT WEATHER AND/OR OBSTRUCTIONS TO VISIBILITY.


NDZ001>003-009>011-017-221600-
NORTHWEST NORTH DAKOTA

CITY           SKY/WX    TMP DP  RH WIND       PRES   REMARKS
WILLISTON      SUNNY     59  44  57 S6        30.21S
MINOT          SUNNY     67  42  40 W14       30.17S
MINOT AFB        N/A     66  40  38 NW14      30.16R
$$

NDZ018>021-031>035-040>046-221600-
SOUTHWEST NORTH DAKOTA

CITY           SKY/WX    TMP DP  RH WIND       PRES   REMARKS
BISMARCK       SUNNY     62  48  60 W5        30.21R
DICKINSON      SUNNY     66  40  38 S3        30.22S
GARRISON         N/A     65  44  46 NW10      30.19S
HETTINGER ARPT SUNNY     64  43  46 CALM      30.25S
$$

NDZ004>008-012>016-024-026-027-054-221600-
NORTHEAST NORTH DAKOTA

CITY           SKY/WX    TMP DP  RH WIND       PRES   REMARKS
GRAND FORKS    SUNNY     68  49  50 NW13      30.05S
GRND FRKS AFB  SUNNY     67  47  48 NW14      30.06S
DEVILS LAKE    SUNNY     63  46  54 W15       30.13S
$$

NDZ022-023-025-028>030-036>039-047>053-221600-
SOUTHEAST NORTH DAKOTA

CITY           SKY/WX    TMP DP  RH WIND       PRES   REMARKS
FARGO          SUNNY     65  51  60 NW12      30.08R
JAMESTOWN      SUNNY     65  50  58 NW10      30.15R
$$





USA.gov is the U.S. government's official web portal to all federal, state and local government web resources and services.